LEMUR-2-MCCAFFERTY (43123 NORAD) Tracking and Keplerian Element Data

This shows tracking and keplerian element data for the satellite.

Feedback or suggestion? Click here.




ElementValue
Catalog43123
NameLEMUR-2-MCCAFFERTY
Epoch Orbit29010
Epoch Day85.22042191
Epoch Year2023
RAAN174.0276
Inclination97.3435
Eccentricity0.0003574
Argument of Perigee259.1421
Mean Anonmoly100.9443
Mean Motion15.7778478
Decay Rate0.00455882
L11 43123U 18004N 23085.22042191 .00455882 00000+0 25870-2 0 9990
L22 43123 97.3435 174.0276 0003574 259.1421 100.9443 15.77784780290103



Live tracking and technical data element details for LEMUR-2-MCCAFFERTY (NORAD 43123). LEMUR-2-MCCAFFERTY can be tracked NOW for your location showing map with azimuth and elevation plus other details from your city location.







IsCatalogInMostPopularTable: catalog: 43123, numindb: 442
Update: records affected: 1



GetName: 43123 LEMUR-2-MCCAFFERTY

Hit Count: updated at: Fri, 16 Jan 2026 03:56:41 GMT